www.pogodaiklimat.ru
ПОГОДА в Кингмане
Время
и дата
21:51 05.02
22:51 05.02
23:51 05.02
00:51 06.02
01:51 06.02
02:51 06.02
03:51 06.02
04:51 06.02
05:51 06.02
06:51 06.02
07:51 06.02
08:51 06.02
09:51 06.02
10:22 06.02
10:51 06.02
11:51 06.02
12:51 06.02
13:51 06.02
14:51 06.02
15:51 06.02
16:51 06.02
17:51 06.02
18:51 06.02
19:51 06.02
20:51 06.02
21:51 06.02
22:51 06.02
23:51 06.02
00:51 07.02
01:51 07.02
02:51 07.02
03:51 07.02
04:51 07.02
05:51 07.02
06:51 07.02
07:51 07.02
08:51 07.02
09:51 07.02
10:51 07.02
11:51 07.02
12:51 07.02
13:51 07.02
14:51 07.02
15:51 07.02
16:51 07.02
17:51 07.02
18:51 07.02
19:51 07.02
Ветер
(напр.,м/с)
Видим. Явления Облачность Т
(С)
Тd
(С)
f
(%)
Тe
(С)
Тes
(С)
Комфортность P
(гПа)
Po
(гПа)
Тmin
(С)
Tmax
(С)
R
(мм)
R24
(мм)
S
(см)
Ю 4 16 км ясно +3.9 -6.7 46 0 0 1013.4 896.1
ЮЗ 3 16 км ясно +5.6 -6.7 41 +3 +3 1012.6 895.8 +3.3 +14.4
СЗ 3 16 км ясно +4.4 -6.1 46 +2 +2 1013.1 896.4
ЮВ 3 16 км ясно 0.0 -6.7 61 -4 -4 1013.8 896.4
ЮВ 4 16 км ясно +2.2 -5.0 59 -2 -2 1013.4 896.4
Ю 3 16 км ясно +0.6 -4.4 69 -4 -4 1013.6 896.1
нст 2 16 км ясно -0.6 -5.0 72 -4 -4 1014.1 896.7
В 3 16 км ясно +0.6 -3.9 72 -4 -4 1014.2 896.7 -1.7 +6.1
В 3 16 км 2/0 3600 m
[Ac]
+3.3 -2.8 64 0 0 1014.7 897.3
В 4 16 км ясно +0.6 -3.3 75 -5 -5 1016.0 897.6
В 4 16 км ясно +0.6 -2.2 81 -5 -5 1016.8 898.5
В 4 16 км ясно +3.9 -0.6 72 0 0 1017.1 898.8
нст 2 16 км ясно +6.1 -1.1 60 +4 +6 1018.3 899.7
С 8 16 км ясно +9.4 -3.9 39 +6 +7 899.7
С 10
{13}
16 км ясно +9.4 -5.0 36 +5 +6 1018.0 900.0 +9.4
С 8
{13}
16 км ясно +10.6 -6.1 30 +7 +9 1018.0 900.0
С 9
{14}
16 км ясно +11.7 -6.7 27 +9 +10 1017.5 899.1
С 10
{14}
16 км ясно +12.2 -7.8 24 +9 +10 1016.7 898.8
С 13
{16}
16 км ясно +11.7 -7.2 26 +8 +8 1016.9 898.5
С 11
{16}
16 км ясно +11.1 -7.2 27 +8 +8 1017.5 899.1
С 10
{15}
16 км ясно +10.6 -7.8 27 +7 +7 1017.9 899.4 +9.4 +12.2
С 9
{14}
16 км ясно +8.9 -7.8 30 +5 +5 1018.0 899.7
С 8 16 км ясно +6.7 -7.8 35 +2 +2 1019.1 900.0
С 8 16 км ясно +6.7 -7.2 36 +2 +2 1019.6 900.6
С 6 16 км ясно +5.0 -7.8 39 +1 +1 1020.0 900.9
СВ 3 16 км ясно +4.4 -7.8 41 +2 +2 1020.4 901.5
С 3 16 км ясно +3.3 -7.2 46 0 0 1020.4 901.8 +2.2 +10.6
С 7
{10}
16 км ясно +3.3 -6.1 50 -2 -2 1020.9 902.4
СВ 4 16 км ясно +3.9 -6.1 48 0 0 1021.0 902.7
СВ 6 16 км ясно +3.3 -5.6 52 -2 -2 1021.6 903.0
СВ 4 16 км ясно +0.6 -5.6 63 -4 -4 1022.1 903.0
СВ 5 16 км ясно +0.6 -5.6 63 -5 -5 1022.2 903.3
В 5 16 км ясно +0.6 -5.6 63 -5 -5 1022.4 903.3 -1.7 +3.9
В 3 16 км ясно -1.1 -6.1 69 -6 -6 1023.2 903.6
В 3 16 км ясно -1.1 -6.7 66 -6 -6 1024.0 904.1
ЮВ 4 16 км ясно -1.7 -6.1 72 -7 -7 1024.7 904.7
В 4 16 км ясно +2.8 -4.4 59 -1 -1 1024.8 905.0
С 6 16 км ясно +6.7 -3.9 47 +3 +4 1024.8 905.3
СВ 6
{9}
16 км ясно +8.3 -5.0 39 +5 +7 1025.1 905.6 -1.7 +8.3
С 6 16 км ясно +10.6 -6.1 30 +8 +11 1024.4 905.3
С 6 16 км ясно +12.2 -6.1 27 +10 +14 1023.2 904.4
С 6
{9}
16 км ясно +12.8 -6.7 25 +11 +14 1022.2 903.6
С 7
{10}
16 км ясно +13.3 -7.2 23 +11 +13 1021.9 903.3
С 5
{8}
16 км ясно +13.3 -7.2 23 +12 +15 1021.7 903.0
С 6 16 км ясно +12.2 -7.2 25 +10 +11 1021.5 902.7 +8.9 +13.9
С 6 16 км ясно +9.4 -6.7 31 +7 +7 1022.2 902.7
В 5 16 км ясно +7.2 -6.7 36 +4 +4 1022.8 903.0
В 5 16 км ясно +4.4 -6.1 46 0 0 1023.5 903.3
Местоположение метеостанции Kingman Airport: широта 35.2578 долгота -113.9331 высота над уровнем моря 1050 м.
В архиве по умолчанию представлена погода в Кингмане за последние 1-2 суток. Обновление информации о фактической погоде в базе происходит ежечасно! Архивные данные за месяц целиком и за предыдущие месяцы Вы можете получить, выбрав интересующий диапазон дат из раскрывающегося списка и нажав кнопку "Ввод!".
Внимание! Архив погоды МЕТАР в базе сайта по станциям, не включенным в климатический монитор, хранится не более 60 дней. Нет смысла пытаться выбрать более раннюю дату.
*Определитесь, кто Вы:
Внимание! Время в таблицах - местное (без учета летнего времени). Для получения всемирного времени необходимо вычесть поправку, которая равна -7 ч.
Смотрите также архив погоды в соседних городах и на ближайших метеорологических станциях:
Партнеры нашего сайта:      
Пояснения к столбцам:
  • Ветер - указаны скорость ветра в м/с - средняя за 10 мин, порывы в срок и между сроками (в фигурных скобках) и направление, откуда дует ветер: С - северный,
  • СВ - северо-восточный, В - восточный, ЮВ - юго-восточный, Ю - южный, ЮЗ - юго-западный, З - западный, СЗ - северо-западный.
  • Видимость - горизонтальная дальность видимости в метрах или километрах. При видимости от 1 до 10 км при отсутствии осадков обычно наблюдается дымка, при ухудшении видимости до 1 км и менее - туман. В сухую погоду видимость может ухудшаться дымом, пылью или мглою.
  • Явления - указаны атмосферные явления, наблюдавшиеся в срок или в последний час перед сроком; фигурными скобками обозначены явления, наблюдавшиеся между сроками (за 1-3 часа до срока); квадратными скобками обозначены град или гололедные отложения с указанием их диаметра в мм.
  • Облачность - указаны через наклонную черту общая и нижняя облачность в баллах и высота нижней границы облаков в метрах; квадратными скобками обозначены формы облаков: Ci - перистые, Cs - перисто-слоистые, Cc - перисто-кучевые, Ac - высококучевые, As - высокослоистые, Sc - слоисто-кучевые, Ns - слоисто-дождевые, Cu - кучевые, Cb - кучево-дождевые. Подробнее классификацию облаков см. в Атласе облаков (PDF).
  • T - Температура воздуха - температура, измеренная на высоте 2 м над землей.
  • Td - Температура точки росы - температура, при понижении до которой содержащийся в воздухе водяной пар достигнет насыщения.
  • f - Относительная влажность воздуха - влажноcть воздуха, измеренная на высоте 2 м над землей.
  • Te - Эффективная температура - температура, которую ощущает одетый по сезону человек в тени. Характеристика душности погоды. При расчете учитывается влияние влажности воздуха и скорости ветра на теплоощущения человека.
  • Tes - Эффективная температура на солнце - температура, которую ощущает человек, с поправкой на солнечный нагрев. Характеристика знойности погоды. Зависит от высоты солнца над горизонтом, облачности и скорости ветра. Ночью, в пасмурную погоду, а также при ветре 12 м/с и более поправка равна нулю.
  • P - Атмосферное давление - приведенное к уровню моря атмосферное давление.
  • Po - Атмосферное давление - измеренное на уровне метеостанции атмосферное давление.
  • Tmin - Минимальная температура - минимум температуры воздуха на высоте 2 м над землей.
  • Tmax - Максимальная температура - максимум температуры воздуха на высоте 2 м над землей.
  • R - Количество осадков - Количество выпавших осадков за период времени, мм. При наведении курсора мыши на число - период времени, за который выпало указанное количество осадков.
  • R24 - Количество осадков - Количество выпавших осадков за 24 часа, мм.
  • S - Снежный покров - Высота снежного покрова, см. При наведении курсора мыши на число - состояние снежного покрова и степень покрытия местности в баллах.